Weather History for Slidell, LA

Change the Weather History Date:

Friday, November 23, 2012

  Actual Average (KNEW) Record (KNEW)
Temperature  
Mean Temperature 59 °F 61 °F  
Max Temperature 75 °F 70 °F 85 °F (1973)
Min Temperature 43 °F 52 °F 29 °F (1976)
Degree Days  
Heating Degree Days 6 6  
Month to date heating degree days 91  
Since 1 July heating degree days 116  
Cooling Degree Days 0 2  
Month to date cooling degree days 60  
Year to date cooling degree days 2969  
Growing Degree Days 9 (Base 50)    
Moisture  
Dew Point 50 °F    
Average Humidity 85    
Maximum Humidity 100    
Minimum Humidity 46    
Precipitation  
Precipitation 0.00 in 0.15 in 1.65 in (1948)
Month to date precipitation 3.38  
Year to date precipitation 56.10  
Snow  
Snow 0.00 in - - ()
Month to date snowfall  
Since 1 July snowfall  
Since 1 September snowfall  
Snow Depth -    
Sea Level Pressure  
Sea Level Pressure 30.22 in    
Wind  
Wind Speed 1 mph (NNW)    
Max Wind Speed 12 mph    
Max Gust Speed 17 mph    
Visibility 7 miles    
Events Fog    
T = Trace of Precipitation, MM = Missing Value Source: NWS Daily Summary

Daily Weather History Graph

Daily Weather History Graph

Search for Another Location

Airport:

Trip Planner

Search our weather history database for the weather conditions in past years. The results will help you decide how hot, cold, wet, or windy it might be!

Date:

Astronomy

Nov. 23, 2012 Rise Set
Actual Time 6:32 AM CST 4:59 PM CST
Civil Twilight 6:06 AM CST 5:25 PM CST
Nautical Twilight 5:36 AM CST 5:54 PM CST
Astronomical Twilight 5:08 AM CST 6:23 PM CST
Moon 1:59 PM CST (11/23) 2:07 AM CST (11/23)
Length of Visible Light 11h 18m
Length of Day
10h 27m
Waxing Gibbous, 80% of the Moon is Illuminated
Nov 23
Waxing Gibbous
Nov 28
Full
Dec 6
Last Quarter
Dec 13
New
Dec 19
First Quarter

Hourly Weather History & Observations

Time (CST) Temp. Windchill Dew Point Humidity Pressure Visibility Wind Dir Wind Speed Gust Speed Precip Events Conditions
12:18 AM 48.2 °F - 46.4 °F 93% 30.21 in 9.0 mi Calm Calm - N/A   Mostly Cloudy
12:25 AM 48.2 °F - 46.4 °F 93% 30.21 in 8.0 mi Calm Calm - N/A   Scattered Clouds
12:51 AM 46.4 °F - 44.6 °F 93% 30.21 in 10.0 mi Calm Calm - N/A   Mostly Cloudy
12:53 AM 46.9 °F - 45.0 °F 93% 30.22 in 10.0 mi Calm Calm - N/A   Mostly Cloudy
1:53 AM 46.0 °F - 45.0 °F 96% 30.21 in 7.0 mi Calm Calm - N/A   Mostly Cloudy
2:02 AM 46.4 °F - 44.6 °F 93% 30.21 in 7.0 mi Calm Calm - N/A   Scattered Clouds
2:23 AM 46.4 °F - 44.6 °F 93% 30.21 in 7.0 mi Calm Calm - N/A   Mostly Cloudy
2:53 AM 46.0 °F - 45.0 °F 96% 30.22 in 7.0 mi Calm Calm - N/A   Overcast
3:44 AM 44.6 °F - 44.6 °F 100% 30.21 in 1.8 mi Calm Calm - N/A   Overcast
3:53 AM 45.0 °F - 44.1 °F 97% 30.21 in 1.0 mi Calm Calm - N/A   Mist
4:01 AM 44.6 °F - 44.6 °F 100% 30.21 in 0.5 mi Calm Calm - N/A Fog Fog
4:53 AM 43.0 °F - 43.0 °F 100% 30.22 in 0.2 mi Calm Calm - N/A Fog Fog
5:53 AM 44.1 °F 42.5 °F 44.1 °F 100% 30.24 in 0.2 mi North 3.5 mph - N/A Fog Fog
6:53 AM 45.0 °F 42.6 °F 45.0 °F 100% 30.25 in 1.0 mi NNE 4.6 mph - N/A   Overcast
7:01 AM 46.4 °F - 46.4 °F 100% 30.25 in 3.0 mi Calm Calm - N/A   Overcast
7:14 AM 46.4 °F - 46.4 °F 100% 30.25 in 2.5 mi Calm Calm - N/A   Overcast
7:25 AM 48.2 °F - 48.2 °F 100% 30.26 in 5.0 mi Calm Calm - N/A   Overcast
7:53 AM 51.1 °F - 51.1 °F 100% 30.27 in 7.0 mi Calm Calm - N/A   Overcast
8:53 AM 53.1 °F - 53.1 °F 100% 30.27 in 7.0 mi Calm Calm - N/A   Mostly Cloudy
9:53 AM 64.9 °F - 57.0 °F 75% 30.27 in 9.0 mi Calm Calm - N/A   Clear
10:53 AM 72.0 °F - 53.1 °F 51% 30.25 in 10.0 mi WSW 4.6 mph - N/A   Partly Cloudy
11:53 AM 73.9 °F - 54.0 °F 50% 30.22 in 10.0 mi Variable 5.8 mph - N/A   Mostly Cloudy
12:53 PM 75.0 °F - 53.1 °F 46% 30.19 in 10.0 mi Variable 4.6 mph - N/A   Mostly Cloudy
1:53 PM 73.0 °F - 55.0 °F 53% 30.17 in 10.0 mi Calm Calm - N/A   Mostly Cloudy
2:53 PM 73.0 °F - 55.0 °F 53% 30.16 in 10.0 mi West 8.1 mph - N/A   Partly Cloudy
3:53 PM 72.0 °F - 55.9 °F 57% 30.16 in 10.0 mi WSW 3.5 mph - N/A   Partly Cloudy
4:53 PM 68.0 °F - 57.9 °F 70% 30.17 in 10.0 mi Calm Calm - N/A   Scattered Clouds
5:53 PM 62.1 °F - 57.9 °F 86% 30.18 in 10.0 mi Calm Calm - N/A   Clear
6:53 PM 61.0 °F - 57.9 °F 90% 30.19 in 10.0 mi Calm Calm - N/A   Overcast
7:53 PM 64.9 °F - 57.9 °F 78% 30.20 in 10.0 mi NNW 3.5 mph - N/A   Overcast
8:53 PM 63.0 °F - 57.0 °F 81% 30.22 in 10.0 mi North 8.1 mph - N/A   Mostly Cloudy
9:48 PM 62.6 °F - 57.2 °F 82% 30.22 in 9.0 mi North 10.4 mph 17.3 mph N/A   Overcast
9:53 PM 62.1 °F - 57.0 °F 84% 30.22 in 9.0 mi North 9.2 mph 17.3 mph N/A   Overcast
10:53 PM 61.0 °F - 54.0 °F 78% 30.22 in 10.0 mi North 11.5 mph 17.3 mph N/A   Overcast